iso_date,epoch_date,Year,Hour,Min,DOY,POS_DOY,Lat,Lon,BP,Ts,Ta,has_bp,has_ts,has_ta,BuoyID,Buoy_Type,Buoy_Owner,Logistics,Hemisphere
2014-03-20T10:19:12Z,1395310752,2014,10,19,79.43,79.43,52.23881,6.1954,1014.05,-999.00,17.6,yes,no,yes,300234060084280,WS,unknown,unknown,North
2014-04-04T20:31:12Z,1396643472,2014,20,31,94.855,94.855,74.71654,-94.98962,1003.52,-999.00,-7.6,yes,no,yes,300234060084280,WS,unknown,unknown,North
2014-04-04T21:00:00Z,1396645200,2014,21,0,94.875,94.875,74.71649,-94.9898,1003.38,-999.00,-20.8,yes,no,yes,300234060084280,WS,unknown,unknown,North
2014-04-04T21:30:14Z,1396647014,2014,21,30,94.896,94.896,74.71648,-94.98978,1003.42,-999.00,-21.6,yes,no,yes,300234060084280,WS,unknown,unknown,North
2014-04-04T22:00:28Z,1396648829,2014,22,0,94.917,94.917,74.7165,-94.98981,1003.38,-999.00,-19.8,yes,no,yes,300234060084280,WS,unknown,unknown,North
2014-04-04T22:30:43Z,1396650643,2014,22,30,94.938,94.938,74.71651,-94.98983,1003.35,-999.00,-21.2,yes,no,yes,300234060084280,WS,unknown,unknown,North
2014-04-04T22:59:31Z,1396652371,2014,23,0,94.958,94.958,74.71651,-94.9898,1003.48,-999.00,-21.3,yes,no,yes,300234060084280,WS,unknown,unknown,North
2014-04-04T23:29:45Z,1396654186,2014,23,30,94.979,94.979,74.71649,-94.98984,1003.49,-999.00,-21.1,yes,no,yes,300234060084280,WS,unknown,unknown,North
2014-04-05T00:00:00Z,1396656000,2014,0,0,95.0,95.0,74.7166,-94.98974,1003.54,-999.00,-22.7,yes,no,yes,300234060084280,WS,unknown,unknown,North
2014-04-05T00:30:14Z,1396657814,2014,0,30,95.021,95.021,74.71649,-94.98978,1003.49,-999.00,-22.0,yes,no,yes,300234060084280,WS,unknown,unknown,North
2014-04-05T01:00:28Z,1396659629,2014,1,0,95.042,95.042,74.7165,-94.98982,1003.55,-999.00,-22.6,yes,no,yes,300234060084280,WS,unknown,unknown,North
2014-04-05T01:29:16Z,1396661357,2014,1,30,95.062,95.062,74.7165,-94.98977,1003.74,-999.00,-23.7,yes,no,yes,300234060084280,WS,unknown,unknown,North
2014-04-05T01:59:31Z,1396663171,2014,2,0,95.083,95.083,74.71651,-94.98976,1003.7,-999.00,-24.9,yes,no,yes,300234060084280,WS,unknown,unknown,North
2014-04-05T02:29:45Z,1396664986,2014,2,30,95.104,95.104,74.71651,-94.98976,1003.8,-999.00,-25.8,yes,no,yes,300234060084280,WS,unknown,unknown,North
2014-04-05T03:00:00Z,1396666800,2014,3,0,95.125,95.125,74.7165,-94.98977,1003.8,-999.00,-27.8,yes,no,yes,300234060084280,WS,unknown,unknown,North
2014-04-05T03:30:14Z,1396668614,2014,3,30,95.146,95.146,74.71649,-94.98976,1003.84,-999.00,-25.7,yes,no,yes,300234060084280,WS,unknown,unknown,North
2014-04-05T04:00:28Z,1396670429,2014,4,0,95.167,95.167,74.71647,-94.98981,1003.78,-999.00,-24.4,yes,no,yes,300234060084280,WS,unknown,unknown,North
2014-04-05T04:30:43Z,1396672243,2014,4,30,95.188,95.188,74.71648,-94.98982,1003.96,-999.00,-25.9,yes,no,yes,300234060084280,WS,unknown,unknown,North
2014-04-05T04:59:31Z,1396673971,2014,5,0,95.208,95.208,74.71649,-94.98985,1004.02,-999.00,-26.4,yes,no,yes,300234060084280,WS,unknown,unknown,North
2014-04-05T05:29:45Z,1396675786,2014,5,30,95.229,95.229,74.71648,-94.98983,1004.02,-999.00,-27.5,yes,no,yes,300234060084280,WS,unknown,unknown,North
2014-04-05T06:00:00Z,1396677600,2014,6,0,95.25,95.25,74.71646,-94.98987,1004.04,-999.00,-27.9,yes,no,yes,300234060084280,WS,unknown,unknown,North
2014-04-05T06:30:14Z,1396679414,2014,6,30,95.271,95.271,74.71648,-94.98987,1004.02,-999.00,-27.0,yes,no,yes,300234060084280,WS,unknown,unknown,North
2014-04-05T07:00:28Z,1396681229,2014,7,0,95.292,95.292,74.7165,-94.98982,1004.05,-999.00,-27.8,yes,no,yes,300234060084280,WS,unknown,unknown,North
2014-04-05T07:29:16Z,1396682957,2014,7,30,95.312,95.312,74.7165,-94.9898,1004.27,-999.00,-29.8,yes,no,yes,300234060084280,WS,unknown,unknown,North
2014-04-05T07:59:31Z,1396684771,2014,8,0,95.333,95.333,74.7165,-94.98982,1004.27,-999.00,-27.8,yes,no,yes,300234060084280,WS,unknown,unknown,North
2014-04-05T08:29:45Z,1396686586,2014,8,30,95.354,95.354,74.71649,-94.98982,1004.4,-999.00,-28.0,yes,no,yes,300234060084280,WS,unknown,unknown,North
2014-04-05T09:00:00Z,1396688400,2014,9,0,95.375,95.375,74.71648,-94.98982,1004.4,-999.00,-27.7,yes,no,yes,300234060084280,WS,unknown,unknown,North
2014-04-05T09:30:14Z,1396690214,2014,9,30,95.396,95.396,74.71647,-94.98981,1004.62,-999.00,-27.5,yes,no,yes,300234060084280,WS,unknown,unknown,North
2014-04-05T10:00:28Z,1396692029,2014,10,0,95.417,95.417,74.71647,-94.98984,1004.65,-999.00,-26.5,yes,no,yes,300234060084280,WS,unknown,unknown,North
2014-04-05T10:30:43Z,1396693843,2014,10,30,95.438,95.438,74.71648,-94.98984,1004.8,-999.00,-25.1,yes,no,yes,300234060084280,WS,unknown,unknown,North
2014-04-05T10:59:31Z,1396695571,2014,11,0,95.458,95.458,74.71648,-94.98987,1004.94,-999.00,-25.8,yes,no,yes,300234060084280,WS,unknown,unknown,North
2014-04-05T11:29:45Z,1396697386,2014,11,30,95.479,95.479,74.71648,-94.98986,1005.05,-999.00,-27.8,yes,no,yes,300234060084280,WS,unknown,unknown,North
2014-04-05T12:00:00Z,1396699200,2014,12,0,95.5,95.5,74.71649,-94.98986,1005.12,-999.00,-27.9,yes,no,yes,300234060084280,WS,unknown,unknown,North
2014-04-05T12:30:14Z,1396701014,2014,12,30,95.521,95.521,74.71648,-94.98983,1005.26,-999.00,-27.8,yes,no,yes,300234060084280,WS,unknown,unknown,North
2014-04-05T13:00:28Z,1396702829,2014,13,0,95.542,95.542,74.71649,-94.98982,1005.25,-999.00,-27.7,yes,no,yes,300234060084280,WS,unknown,unknown,North
2014-04-05T13:29:16Z,1396704557,2014,13,30,95.562,95.562,74.71649,-94.98983,1005.57,-999.00,-28.9,yes,no,yes,300234060084280,WS,unknown,unknown,North
2014-04-05T13:59:31Z,1396706371,2014,14,0,95.583,95.583,74.71649,-94.98989,1005.62,-999.00,-28.1,yes,no,yes,300234060084280,WS,unknown,unknown,North
2014-04-05T14:29:45Z,1396708186,2014,14,30,95.604,95.604,74.71649,-94.98988,1005.64,-999.00,-27.5,yes,no,yes,300234060084280,WS,unknown,unknown,North
2014-04-05T15:00:00Z,1396710000,2014,15,0,95.625,95.625,74.71647,-94.98991,1005.82,-999.00,-27.1,yes,no,yes,300234060084280,WS,unknown,unknown,North
2014-04-05T15:30:14Z,1396711814,2014,15,30,95.646,95.646,74.71646,-94.98985,1005.9,-999.00,-27.5,yes,no,yes,300234060084280,WS,unknown,unknown,North
2014-04-05T16:00:28Z,1396713629,2014,16,0,95.667,95.667,74.71649,-94.98979,1006.04,-999.00,-27.4,yes,no,yes,300234060084280,WS,unknown,unknown,North
2014-04-05T16:30:43Z,1396715443,2014,16,30,95.688,95.688,74.71649,-94.98978,1006.18,-999.00,-27.1,yes,no,yes,300234060084280,WS,unknown,unknown,North
2014-04-08T18:00:00Z,1396980000,2014,18,0,98.75,98.75,80.74108,-111.95184,1019.35,-999.00,-33.4,yes,no,yes,300234060084280,WS,unknown,unknown,North
2014-04-08T21:00:00Z,1396990800,2014,21,0,98.875,98.875,80.74107,-111.95173,1019.92,-999.00,-31.5,yes,no,yes,300234060084280,WS,unknown,unknown,North
2014-04-09T00:00:00Z,1397001600,2014,0,0,99.0,99.0,80.74109,-111.95164,1020.37,-999.00,-29.9,yes,no,yes,300234060084280,WS,unknown,unknown,North
2014-04-09T03:00:00Z,1397012400,2014,3,0,99.125,99.125,80.74108,-111.95172,1020.62,-999.00,-31.1,yes,no,yes,300234060084280,WS,unknown,unknown,North
2014-04-09T06:00:00Z,1397023200,2014,6,0,99.25,99.25,80.74107,-111.95171,1021.32,-999.00,-33.0,yes,no,yes,300234060084280,WS,unknown,unknown,North
2014-04-09T09:00:00Z,1397034000,2014,9,0,99.375,99.375,80.74109,-111.95177,1022.91,-999.00,-35.8,yes,no,yes,300234060084280,WS,unknown,unknown,North
2014-04-09T12:00:00Z,1397044800,2014,12,0,99.5,99.5,80.74108,-111.95176,1024.19,-999.00,-34.1,yes,no,yes,300234060084280,WS,unknown,unknown,North
2014-04-09T15:00:00Z,1397055600,2014,15,0,99.625,99.625,80.74108,-111.95166,1025.07,-999.00,-33.1,yes,no,yes,300234060084280,WS,unknown,unknown,North
2014-04-09T18:00:00Z,1397066400,2014,18,0,99.75,99.75,80.74109,-111.95185,1025.66,-999.00,-31.0,yes,no,yes,300234060084280,WS,unknown,unknown,North
2014-04-09T21:00:00Z,1397077200,2014,21,0,99.875,99.875,80.74108,-111.95179,1026.68,-999.00,-29.5,yes,no,yes,300234060084280,WS,unknown,unknown,North
2014-04-10T00:00:00Z,1397088000,2014,0,0,100.0,100.0,80.7411,-111.95172,1027.09,-999.00,-30.1,yes,no,yes,300234060084280,WS,unknown,unknown,North
2014-04-10T03:00:00Z,1397098800,2014,3,0,100.125,100.125,80.74109,-111.95166,1026.36,-999.00,-31.1,yes,no,yes,300234060084280,WS,unknown,unknown,North
2014-04-10T06:00:00Z,1397109600,2014,6,0,100.25,100.25,80.74108,-111.95182,1025.68,-999.00,-33.4,yes,no,yes,300234060084280,WS,unknown,unknown,North
2014-04-10T09:00:00Z,1397120400,2014,9,0,100.375,100.375,80.7411,-111.95184,1025.08,-999.00,-34.3,yes,no,yes,300234060084280,WS,unknown,unknown,North
2014-04-10T12:00:00Z,1397131200,2014,12,0,100.5,100.5,80.74111,-111.95176,1023.7,-999.00,-34.5,yes,no,yes,300234060084280,WS,unknown,unknown,North
2014-04-10T15:00:00Z,1397142000,2014,15,0,100.625,100.625,80.74129,-111.95209,1022.08,-999.00,-32.6,yes,no,yes,300234060084280,WS,unknown,unknown,North
2014-04-10T18:00:00Z,1397152800,2014,18,0,100.75,100.75,80.74183,-111.95324,1020.17,-999.00,-31.5,yes,no,yes,300234060084280,WS,unknown,unknown,North
2014-04-10T21:00:00Z,1397163600,2014,21,0,100.875,100.875,80.74258,-111.95488,1018.61,-999.00,-30.3,yes,no,yes,300234060084280,WS,unknown,unknown,North
2014-04-11T00:00:00Z,1397174400,2014,0,0,101.0,101.0,80.74301,-111.9555,1016.67,-999.00,-30.6,yes,no,yes,300234060084280,WS,unknown,unknown,North
2014-04-11T03:00:00Z,1397185200,2014,3,0,101.125,101.125,80.74277,-111.95461,1014.74,-999.00,-32.0,yes,no,yes,300234060084280,WS,unknown,unknown,North
2014-04-11T06:00:00Z,1397196000,2014,6,0,101.25,101.25,80.74207,-111.95301,1012.86,-999.00,-32.5,yes,no,yes,300234060084280,WS,unknown,unknown,North
2014-04-11T09:00:00Z,1397206800,2014,9,0,101.375,101.375,80.74118,-111.95177,1011.47,-999.00,-34.4,yes,no,yes,300234060084280,WS,unknown,unknown,North
2014-04-11T12:00:00Z,1397217600,2014,12,0,101.5,101.5,80.74114,-111.95182,1010.39,-999.00,-33.6,yes,no,yes,300234060084280,WS,unknown,unknown,North
2014-04-11T15:00:00Z,1397228400,2014,15,0,101.625,101.625,80.74113,-111.95184,1009.32,-999.00,-30.6,yes,no,yes,300234060084280,WS,unknown,unknown,North
2014-04-11T18:00:00Z,1397239200,2014,18,0,101.75,101.75,80.74115,-111.95192,1008.7,-999.00,-29.9,yes,no,yes,300234060084280,WS,unknown,unknown,North
2014-04-11T21:00:00Z,1397250000,2014,21,0,101.875,101.875,80.74111,-111.95156,1008.77,-999.00,-29.0,yes,no,yes,300234060084280,WS,unknown,unknown,North
2014-04-12T00:00:00Z,1397260800,2014,0,0,102.0,102.0,80.74113,-111.95152,1009.08,-999.00,-28.7,yes,no,yes,300234060084280,WS,unknown,unknown,North
2014-04-12T03:00:00Z,1397271600,2014,3,0,102.125,102.125,80.74111,-111.95154,1009.24,-999.00,-31.9,yes,no,yes,300234060084280,WS,unknown,unknown,North
2014-04-12T06:00:00Z,1397282400,2014,6,0,102.25,102.25,80.74113,-111.95145,1009.46,-999.00,-34.0,yes,no,yes,300234060084280,WS,unknown,unknown,North
2014-04-12T09:00:00Z,1397293200,2014,9,0,102.375,102.375,80.74116,-111.9512,1009.81,-999.00,-35.7,yes,no,yes,300234060084280,WS,unknown,unknown,North
2014-04-12T12:00:00Z,1397304000,2014,12,0,102.5,102.5,80.74122,-111.95105,1009.39,-999.00,-35.1,yes,no,yes,300234060084280,WS,unknown,unknown,North
2014-04-12T15:00:00Z,1397314800,2014,15,0,102.625,102.625,80.74137,-111.95051,1008.27,-999.00,-32.4,yes,no,yes,300234060084280,WS,unknown,unknown,North
2014-04-12T18:00:00Z,1397325600,2014,18,0,102.75,102.75,80.74153,-111.95045,1007.27,-999.00,-29.0,yes,no,yes,300234060084280,WS,unknown,unknown,North
2014-04-12T21:00:00Z,1397336400,2014,21,0,102.875,102.875,80.74173,-111.94884,1006.42,-999.00,-26.1,yes,no,yes,300234060084280,WS,unknown,unknown,North
2014-04-13T00:00:00Z,1397347200,2014,0,0,103.0,103.0,80.74185,-111.94777,1005.72,-999.00,-23.0,yes,no,yes,300234060084280,WS,unknown,unknown,North
2014-04-13T03:00:00Z,1397358000,2014,3,0,103.125,103.125,80.74208,-111.94148,1004.41,-999.00,-20.7,yes,no,yes,300234060084280,WS,unknown,unknown,North
2014-04-13T06:00:00Z,1397368800,2014,6,0,103.25,103.25,80.7421,-111.94111,1003.88,-999.00,-19.2,yes,no,yes,300234060084280,WS,unknown,unknown,North
2014-04-13T09:00:00Z,1397379600,2014,9,0,103.375,103.375,80.74211,-111.94103,1004.1,-999.00,-20.6,yes,no,yes,300234060084280,WS,unknown,unknown,North
2014-04-13T12:00:00Z,1397390400,2014,12,0,103.5,103.5,80.74212,-111.94097,1004.59,-999.00,-19.4,yes,no,yes,300234060084280,WS,unknown,unknown,North
2014-04-13T15:00:00Z,1397401200,2014,15,0,103.625,103.625,80.74217,-111.9407,1005.31,-999.00,-18.2,yes,no,yes,300234060084280,WS,unknown,unknown,North
2014-04-13T18:00:00Z,1397412000,2014,18,0,103.75,103.75,80.74251,-111.93615,1005.73,-999.00,-17.4,yes,no,yes,300234060084280,WS,unknown,unknown,North
2014-04-13T21:00:00Z,1397422800,2014,21,0,103.875,103.875,80.74308,-111.92766,1007.3,-999.00,-17.5,yes,no,yes,300234060084280,WS,unknown,unknown,North
2014-04-14T00:00:00Z,1397433600,2014,0,0,104.0,104.0,80.7431,-111.92751,1007.74,-999.00,-17.9,yes,no,yes,300234060084280,WS,unknown,unknown,North
2014-04-14T03:00:00Z,1397444400,2014,3,0,104.125,104.125,80.74317,-111.92756,1007.15,-999.00,-19.4,yes,no,yes,300234060084280,WS,unknown,unknown,North
2014-04-14T06:00:00Z,1397455200,2014,6,0,104.25,104.25,80.74428,-111.92123,1004.79,-999.00,-20.4,yes,no,yes,300234060084280,WS,unknown,unknown,North
2014-04-14T09:00:00Z,1397466000,2014,9,0,104.375,104.375,80.75168,-111.86088,1000.68,-999.00,-18.0,yes,no,yes,300234060084280,WS,unknown,unknown,North
2014-04-14T12:00:00Z,1397476800,2014,12,0,104.5,104.5,80.75978,-111.78334,998.6,-999.00,-15.0,yes,no,yes,300234060084280,WS,unknown,unknown,North
2014-04-14T15:00:00Z,1397487600,2014,15,0,104.625,104.625,80.76245,-111.70206,998.9,-999.00,-11.5,yes,no,yes,300234060084280,WS,unknown,unknown,North
2014-04-14T18:00:00Z,1397498400,2014,18,0,104.75,104.75,80.76027,-111.66658,1002.27,-999.00,-14.0,yes,no,yes,300234060084280,WS,unknown,unknown,North
2014-04-14T21:00:00Z,1397509200,2014,21,0,104.875,104.875,80.75839,-111.65038,1005.36,-999.00,-15.9,yes,no,yes,300234060084280,WS,unknown,unknown,North
2014-04-15T00:00:00Z,1397520000,2014,0,0,105.0,105.0,80.75762,-111.64486,1008.15,-999.00,-19.3,yes,no,yes,300234060084280,WS,unknown,unknown,North
2014-04-15T03:00:00Z,1397530800,2014,3,0,105.125,105.125,80.75757,-111.64494,1011.46,-999.00,-23.0,yes,no,yes,300234060084280,WS,unknown,unknown,North
2014-04-15T06:00:00Z,1397541600,2014,6,0,105.25,105.25,80.75755,-111.64491,1014.09,-999.00,-25.4,yes,no,yes,300234060084280,WS,unknown,unknown,North
2014-04-15T09:00:00Z,1397552400,2014,9,0,105.375,105.375,80.75756,-111.64514,1016.56,-999.00,-27.1,yes,no,yes,300234060084280,WS,unknown,unknown,North
2014-04-15T12:00:00Z,1397563200,2014,12,0,105.5,105.5,80.75757,-111.64507,1018.94,-999.00,-28.5,yes,no,yes,300234060084280,WS,unknown,unknown,North
2014-04-15T15:00:00Z,1397574000,2014,15,0,105.625,105.625,80.75755,-111.64512,1020.46,-999.00,-27.5,yes,no,yes,300234060084280,WS,unknown,unknown,North
2014-04-15T18:00:00Z,1397584800,2014,18,0,105.75,105.75,80.75762,-111.64519,1020.78,-999.00,-25.9,yes,no,yes,300234060084280,WS,unknown,unknown,North
2014-04-15T21:00:00Z,1397595600,2014,21,0,105.875,105.875,80.75763,-111.64512,1020.94,-999.00,-24.0,yes,no,yes,300234060084280,WS,unknown,unknown,North
2014-04-16T00:00:00Z,1397606400,2014,0,0,106.0,106.0,80.75761,-111.64518,1021.34,-999.00,-23.5,yes,no,yes,300234060084280,WS,unknown,unknown,North
2014-04-16T03:00:00Z,1397617200,2014,3,0,106.125,106.125,80.75762,-111.64521,1021.15,-999.00,-24.7,yes,no,yes,300234060084280,WS,unknown,unknown,North
2014-04-16T06:00:00Z,1397628000,2014,6,0,106.25,106.25,80.75759,-111.64521,1021.14,-999.00,-27.1,yes,no,yes,300234060084280,WS,unknown,unknown,North
2014-04-16T09:00:00Z,1397638800,2014,9,0,106.375,106.375,80.75761,-111.64524,1021.3,-999.00,-28.1,yes,no,yes,300234060084280,WS,unknown,unknown,North
2014-04-16T12:00:00Z,1397649600,2014,12,0,106.5,106.5,80.7576,-111.64539,1021.59,-999.00,-28.4,yes,no,yes,300234060084280,WS,unknown,unknown,North
2014-04-16T15:00:00Z,1397660400,2014,15,0,106.625,106.625,80.75761,-111.64522,1021.79,-999.00,-26.9,yes,no,yes,300234060084280,WS,unknown,unknown,North
2014-04-16T18:00:00Z,1397671200,2014,18,0,106.75,106.75,80.75764,-111.64539,1021.43,-999.00,-24.3,yes,no,yes,300234060084280,WS,unknown,unknown,North
2014-04-16T21:00:00Z,1397682000,2014,21,0,106.875,106.875,80.75764,-111.64508,1021.24,-999.00,-22.1,yes,no,yes,300234060084280,WS,unknown,unknown,North
2014-04-17T00:00:00Z,1397692800,2014,0,0,107.0,107.0,80.7577,-111.64521,1020.34,-999.00,-21.6,yes,no,yes,300234060084280,WS,unknown,unknown,North
2014-04-17T03:00:00Z,1397703600,2014,3,0,107.125,107.125,80.75793,-111.64533,1018.56,-999.00,-24.7,yes,no,yes,300234060084280,WS,unknown,unknown,North
2014-04-17T06:00:00Z,1397714400,2014,6,0,107.25,107.25,80.75821,-111.64598,1016.79,-999.00,-27.8,yes,no,yes,300234060084280,WS,unknown,unknown,North
2014-04-17T09:00:00Z,1397725200,2014,9,0,107.375,107.375,80.75841,-111.64687,1013.97,-999.00,-28.2,yes,no,yes,300234060084280,WS,unknown,unknown,North
2014-04-17T12:00:00Z,1397736000,2014,12,0,107.5,107.5,80.75845,-111.64688,1010.79,-999.00,-25.9,yes,no,yes,300234060084280,WS,unknown,unknown,North
2014-04-17T15:00:00Z,1397746800,2014,15,0,107.625,107.625,80.7584,-111.64649,1007.28,-999.00,-24.0,yes,no,yes,300234060084280,WS,unknown,unknown,North
2014-04-17T18:00:00Z,1397757600,2014,18,0,107.75,107.75,80.75827,-111.64632,1004.06,-999.00,-21.0,yes,no,yes,300234060084280,WS,unknown,unknown,North
2014-04-17T21:00:00Z,1397768400,2014,21,0,107.875,107.875,80.75808,-111.64577,1002.34,-999.00,-19.3,yes,no,yes,300234060084280,WS,unknown,unknown,North
2014-04-18T00:00:00Z,1397779200,2014,0,0,108.0,108.0,80.75803,-111.64572,1001.34,-999.00,-19.1,yes,no,yes,300234060084280,WS,unknown,unknown,North
2014-04-18T03:00:00Z,1397790000,2014,3,0,108.125,108.125,80.75798,-111.64567,1000.9,-999.00,-22.2,yes,no,yes,300234060084280,WS,unknown,unknown,North
2014-04-18T06:00:00Z,1397800800,2014,6,0,108.25,108.25,80.75797,-111.64562,1001.0,-999.00,-25.5,yes,no,yes,300234060084280,WS,unknown,unknown,North
2014-04-18T09:00:00Z,1397811600,2014,9,0,108.375,108.375,80.75795,-111.64556,1001.77,-999.00,-26.8,yes,no,yes,300234060084280,WS,unknown,unknown,North
2014-04-18T12:00:00Z,1397822400,2014,12,0,108.5,108.5,80.75796,-111.64541,1002.08,-999.00,-23.0,yes,no,yes,300234060084280,WS,unknown,unknown,North
2014-04-18T15:00:00Z,1397833200,2014,15,0,108.625,108.625,80.75795,-111.64539,1002.39,-999.00,-20.3,yes,no,yes,300234060084280,WS,unknown,unknown,North
2014-04-18T18:00:00Z,1397844000,2014,18,0,108.75,108.75,80.75796,-111.64528,1002.83,-999.00,-19.6,yes,no,yes,300234060084280,WS,unknown,unknown,North
2014-04-18T21:00:00Z,1397854800,2014,21,0,108.875,108.875,80.75795,-111.64509,1003.27,-999.00,-20.5,yes,no,yes,300234060084280,WS,unknown,unknown,North
2014-04-19T00:00:00Z,1397865600,2014,0,0,109.0,109.0,80.75791,-111.64502,1003.41,-999.00,-21.5,yes,no,yes,300234060084280,WS,unknown,unknown,North
2014-04-19T03:00:00Z,1397876400,2014,3,0,109.125,109.125,80.75792,-111.64491,1003.76,-999.00,-22.7,yes,no,yes,300234060084280,WS,unknown,unknown,North
2014-04-19T06:00:00Z,1397887200,2014,6,0,109.25,109.25,80.75791,-111.64477,1004.89,-999.00,-22.0,yes,no,yes,300234060084280,WS,unknown,unknown,North
2014-04-19T09:00:00Z,1397898000,2014,9,0,109.375,109.375,80.7579,-111.64482,1006.53,-999.00,-19.5,yes,no,yes,300234060084280,WS,unknown,unknown,North
2014-04-19T12:00:00Z,1397908800,2014,12,0,109.5,109.5,80.75789,-111.64466,1008.18,-999.00,-20.4,yes,no,yes,300234060084280,WS,unknown,unknown,North
2014-04-19T15:00:00Z,1397919600,2014,15,0,109.625,109.625,80.7579,-111.64461,1009.14,-999.00,-21.5,yes,no,yes,300234060084280,WS,unknown,unknown,North
2014-04-19T18:00:00Z,1397930400,2014,18,0,109.75,109.75,80.75794,-111.64441,1010.01,-999.00,-20.6,yes,no,yes,300234060084280,WS,unknown,unknown,North
2014-04-19T21:00:00Z,1397941200,2014,21,0,109.875,109.875,80.75795,-111.64423,1011.12,-999.00,-19.8,yes,no,yes,300234060084280,WS,unknown,unknown,North
2014-04-20T00:00:00Z,1397952000,2014,0,0,110.0,110.0,80.75795,-111.64416,1012.01,-999.00,-20.2,yes,no,yes,300234060084280,WS,unknown,unknown,North
2014-04-20T03:00:00Z,1397962800,2014,3,0,110.125,110.125,80.75794,-111.64405,1012.99,-999.00,-21.3,yes,no,yes,300234060084280,WS,unknown,unknown,North
2014-04-20T06:00:00Z,1397973600,2014,6,0,110.25,110.25,80.75795,-111.64415,1013.96,-999.00,-22.4,yes,no,yes,300234060084280,WS,unknown,unknown,North
2014-04-20T09:00:00Z,1397984400,2014,9,0,110.375,110.375,80.75795,-111.64393,1014.54,-999.00,-23.7,yes,no,yes,300234060084280,WS,unknown,unknown,North
2014-04-20T12:00:00Z,1397995200,2014,12,0,110.5,110.5,80.75797,-111.64384,1015.09,-999.00,-23.5,yes,no,yes,300234060084280,WS,unknown,unknown,North
2014-04-20T15:00:00Z,1398006000,2014,15,0,110.625,110.625,80.75796,-111.64382,1015.27,-999.00,-22.7,yes,no,yes,300234060084280,WS,unknown,unknown,North
2014-04-20T18:00:00Z,1398016800,2014,18,0,110.75,110.75,80.75803,-111.64356,1015.16,-999.00,-20.6,yes,no,yes,300234060084280,WS,unknown,unknown,North
2014-04-20T21:00:00Z,1398027600,2014,21,0,110.875,110.875,80.75809,-111.64332,1014.55,-999.00,-18.1,yes,no,yes,300234060084280,WS,unknown,unknown,North
2014-04-21T00:00:00Z,1398038400,2014,0,0,111.0,111.0,80.75815,-111.6431,1014.02,-999.00,-18.2,yes,no,yes,300234060084280,WS,unknown,unknown,North
2014-04-21T03:00:00Z,1398049200,2014,3,0,111.125,111.125,80.75818,-111.64266,1012.64,-999.00,-17.5,yes,no,yes,300234060084280,WS,unknown,unknown,North
2014-04-21T06:00:00Z,1398060000,2014,6,0,111.25,111.25,80.75819,-111.64239,1011.85,-999.00,-17.4,yes,no,yes,300234060084280,WS,unknown,unknown,North
2014-04-21T09:00:00Z,1398070800,2014,9,0,111.375,111.375,80.75819,-111.64239,1011.53,-999.00,-17.7,yes,no,yes,300234060084280,WS,unknown,unknown,North
2014-04-21T12:00:00Z,1398081600,2014,12,0,111.5,111.5,80.75819,-111.64233,1011.0,-999.00,-17.0,yes,no,yes,300234060084280,WS,unknown,unknown,North
2014-04-21T15:00:00Z,1398092400,2014,15,0,111.625,111.625,80.75818,-111.6423,1010.22,-999.00,-15.7,yes,no,yes,300234060084280,WS,unknown,unknown,North
2014-04-21T18:00:00Z,1398103200,2014,18,0,111.75,111.75,80.75816,-111.64234,1009.74,-999.00,-14.9,yes,no,yes,300234060084280,WS,unknown,unknown,North
2014-04-21T21:00:00Z,1398114000,2014,21,0,111.875,111.875,80.7581,-111.64209,1010.6,-999.00,-15.1,yes,no,yes,300234060084280,WS,unknown,unknown,North
2014-04-22T00:00:00Z,1398124800,2014,0,0,112.0,112.0,80.75811,-111.64245,1012.27,-999.00,-15.7,yes,no,yes,300234060084280,WS,unknown,unknown,North
2014-04-22T03:00:00Z,1398135600,2014,3,0,112.125,112.125,80.75809,-111.64251,1013.35,-999.00,-18.3,yes,no,yes,300234060084280,WS,unknown,unknown,North
2014-04-22T06:00:00Z,1398146400,2014,6,0,112.25,112.25,80.75807,-111.64247,1013.98,-999.00,-20.1,yes,no,yes,300234060084280,WS,unknown,unknown,North
2014-04-22T09:00:00Z,1398157200,2014,9,0,112.375,112.375,80.75808,-111.64244,1013.89,-999.00,-17.7,yes,no,yes,300234060084280,WS,unknown,unknown,North
2014-04-22T12:00:00Z,1398168000,2014,12,0,112.5,112.5,80.75805,-111.64242,1013.16,-999.00,-11.5,yes,no,yes,300234060084280,WS,unknown,unknown,North
2014-04-22T15:00:00Z,1398178800,2014,15,0,112.625,112.625,80.75804,-111.64254,1013.53,-999.00,-10.0,yes,no,yes,300234060084280,WS,unknown,unknown,North
2014-04-22T18:00:00Z,1398189600,2014,18,0,112.75,112.75,80.75804,-111.64275,1015.26,-999.00,-15.2,yes,no,yes,300234060084280,WS,unknown,unknown,North
2014-04-22T21:00:00Z,1398200400,2014,21,0,112.875,112.875,80.75804,-111.64269,1017.18,-999.00,-17.7,yes,no,yes,300234060084280,WS,unknown,unknown,North
2014-04-23T00:00:00Z,1398211200,2014,0,0,113.0,113.0,80.75803,-111.64285,1018.77,-999.00,-18.8,yes,no,yes,300234060084280,WS,unknown,unknown,North
2014-04-23T03:00:00Z,1398222000,2014,3,0,113.125,113.125,80.75802,-111.6429,1020.33,-999.00,-20.3,yes,no,yes,300234060084280,WS,unknown,unknown,North
2014-04-23T06:00:00Z,1398232800,2014,6,0,113.25,113.25,80.75803,-111.64298,1022.59,-999.00,-24.2,yes,no,yes,300234060084280,WS,unknown,unknown,North